Home > Weather > Durango > Past weeks

Flag for USA Weather for the Past 2 Weeks in Durango, Colorado, USA

Now
72 °F

Passing clouds.


Feels Like: 74 °F
Forecast: 43 / 65 °F
Wind: 18 mph from South

Location: Durango-La Plata County Airport

Current Time: May 6, 2016 at 1:40:51 PM

Latest Report: May 6, 2016 at 12:53 PM


Visibility: 10 mi

Pressure: 29.68 "Hg (23.58 "Hg at 1989m altitude)

Humidity: 17%

Dew Point: 25 °F

Location of DurangoLocation

Historic Weather in Durango — Graph

°F

Durango Temperature Yesterday

Maximum temperature yesterday: 73 °F (at 1:53 PM)
Minimum temperature yesterday: 32 °F (at 5:53 AM)
Average temperature yesterday: 58 °F

High & Low Weather Summary for the Past Weeks

 TemperatureHumidityPressure
High74 °F (Apr 22, 2:53 PM)100% (May 1, 11:53 AM)30.27 "Hg (May 1, 11:53 AM)
Low23 °F (Apr 27, 5:53 AM)13% (Apr 22, 3:53 PM)29.52 "Hg (Apr 25, 3:53 PM)
Average48 °F53%29.91 "Hg
* Reported Apr 21 11:53 AM — May 6 11:53 AM, Durango, Weather by CustomWeather, © 2016

Note: Actual official high and low records may vary slightly from our data, if they occured in-between our weather recording intervals... More about our weather records

Advertising

Durango Weather History for the Previous 24 Hours

Scroll right to see more
 ConditionsComfort  
Time TempWeatherWind HumidityBarometerVisibility
11:53 AM
Fri, May 6
71 °FSunny.16 mph19%29.70 "Hg10 mi
10:53 AM69 °FSunny.17 mph20%29.73 "Hg10 mi
9:53 AM66 °FSunny.17 mph26%29.78 "Hg10 mi
8:53 AM62 °FSunny.14 mph34%29.80 "Hg10 mi
7:53 AM57 °FScattered clouds.8 mph44%29.81 "Hg10 mi
6:53 AM53 °FOvercast.7 mph52%29.80 "Hg10 mi
5:53 AM52 °FPassing clouds.9 mph50%29.80 "Hg10 mi
4:53 AM56 °FLight rain. Mostly cloudy.21 mph40%29.78 "Hg10 mi
3:53 AM58 °FPartly cloudy.16 mph31%29.76 "Hg10 mi
2:53 AM60 °FOvercast.14 mph28%29.77 "Hg10 mi
1:53 AM60 °FOvercast.13 mph30%29.77 "Hg10 mi
12:53 AM62 °FOvercast.8 mph27%29.78 "Hg10 mi
11:53 PM
Thu, May 5
65 °FOvercast.15 mph25%29.78 "Hg10 mi
10:53 PM65 °FPassing clouds.9 mph21%29.82 "Hg10 mi
9:53 PM60 °FPassing clouds.6 mph32%29.85 "Hg10 mi
8:53 PM64 °FSunny.9 mph22%29.84 "Hg10 mi
7:53 PM67 °FSunny.9 mph19%29.85 "Hg10 mi
6:53 PM71 °FSunny.8 mph17%29.85 "Hg10 mi
5:53 PM72 °FPassing clouds.10 mph17%29.91 "Hg10 mi
4:53 PM72 °FSunny.9 mph17%29.93 "Hg10 mi
3:53 PM73 °FSunny.9 mph16%29.94 "Hg10 mi
2:53 PM73 °FPassing clouds.6 mph18%29.95 "Hg10 mi
1:53 PM73 °FPartly sunny.10 mph21%29.99 "Hg10 mi
Weather by CustomWeather, © 2016

See weather overviewHow to use our weather pages